User: anonymous
Location: El Centro
(32.7920°N, 115.5620°W)
Time: 14:23:39
(UTC-07:00)
Language:

Hamsat - Orbit

View from above orbital plane
View from above orbital plane
View from above satellite
View from above satellite

Ground track
Ground track

The orbit data is extracted from the following two-line orbital elements,

1 28650U 05017B   14203.04461112  .00000682  00000-0  84236-4 0  7972
2 28650 097.5603 206.2702 0025853 046.4325 313.9032 14.85593274498403
Epoch (UTC): 22 July 2014 01:04:14
Eccentricity: 0.0025853
inclination: 97.5603°
perigee height: 593 km
apogee height: 630 km
right ascension of ascending node: 206.2702°
argument of perigee: 46.4325°
revolutions per day: 14.85593274
mean anomaly at epoch: 313.9032°
orbit number at epoch: 49840

The dashed part of the orbit path shows where the satellite is in the earth's shadow,  

DLR